owner,sensor,date,latitude,longitude,vertical_datum,direction_of_sea_water_velocity,sea_water_speed,upward_sea_water_velocity,qcFlag 
TABS,ioos:station:wmo:42050:1,2015-04-01T00:00:00Z,28.8425,-94.2433,2.0,268.817973,14.06299044,-99999.0,'11111222,11111222,99999999' 
TABS,ioos:station:wmo:42050:1,2015-04-01T00:30:00Z,28.8425,-94.2433,2.0,270.0004209,14.51,-99999.0,'11111222,11111222,99999999' 
TABS,ioos:station:wmo:42050:1,2015-04-01T01:00:00Z,28.8425,-94.2433,2.0,270.2342794,14.70012245,-99999.0,'11111222,11111222,99999999' 
TABS,ioos:station:wmo:42050:1,2015-04-01T01:30:00Z,28.8425,-94.2433,2.0,271.6281406,14.78596632,-99999.0,'11111222,11111222,99999999' 
TABS,ioos:station:wmo:42050:1,2015-04-01T02:00:00Z,28.8425,-94.2433,2.0,271.5120385,14.40501302,-99999.0,'11111222,11111222,99999999' 
TABS,ioos:station:wmo:42050:1,2015-04-01T02:30:00Z,28.8425,-94.2433,2.0,283.2189173,13.42571413,-99999.0,'11111222,11111222,99999999' 
TABS,ioos:station:wmo:42050:1,2015-04-01T03:00:00Z,28.8425,-94.2433,2.0,307.6160615,12.59906743,-99999.0,'11111222,11111222,99999999' 
TABS,ioos:station:wmo:42050:1,2015-04-01T03:30:00Z,28.8425,-94.2433,2.0,318.952643,11.69507589,-99999.0,'11111222,11111222,99999999' 
TABS,ioos:station:wmo:42050:1,2015-04-01T04:00:00Z,28.8425,-94.2433,2.0,340.8229094,14.15554308,-99999.0,'11111222,11111222,99999999' 
TABS,ioos:station:wmo:42050:1,2015-04-01T04:30:00Z,28.8425,-94.2433,2.0,344.1375892,15.21956635,-99999.0,'11111222,11111222,99999999' 
TABS,ioos:station:wmo:42050:1,2015-04-01T05:00:00Z,28.8425,-94.2433,2.0,2.083512925,14.02927297,-99999.0,'11111222,11111222,99999999' 
TABS,ioos:station:wmo:42050:1,2015-04-01T05:30:00Z,28.8425,-94.2433,2.0,11.55119071,15.38152463,-99999.0,'11111222,11111222,99999999' 
TABS,ioos:station:wmo:42050:1,2015-04-01T06:00:00Z,28.8425,-94.2433,2.0,19.91939949,13.79532167,-99999.0,'11111222,11111222,99999999' 
TABS,ioos:station:wmo:42050:1,2015-04-01T06:30:00Z,28.8425,-94.2433,2.0,27.43791515,14.97444824,-99999.0,'11111222,11111222,99999999' 
TABS,ioos:station:wmo:42050:1,2015-04-01T07:00:00Z,28.8425,-94.2433,2.0,33.54702005,13.3183933,-99999.0,'11111222,11111222,99999999' 
TABS,ioos:station:wmo:42050:1,2015-04-01T07:30:00Z,28.8425,-94.2433,2.0,41.85898274,11.61400017,-99999.0,'11111222,11111222,99999999' 
TABS,ioos:station:wmo:42050:1,2015-04-01T08:00:00Z,28.8425,-94.2433,2.0,33.74642651,11.30479544,-99999.0,'11111222,11111222,99999999' 
TABS,ioos:station:wmo:42050:1,2015-04-01T08:30:00Z,28.8425,-94.2433,2.0,51.49589188,11.50067824,-99999.0,'11111222,11111222,99999999' 
TABS,ioos:station:wmo:42050:1,2015-04-01T09:00:00Z,28.8425,-94.2433,2.0,66.17705057,10.84392918,-99999.0,'11111222,11111222,99999999' 
TABS,ioos:station:wmo:42050:1,2015-04-01T09:30:00Z,28.8425,-94.2433,2.0,73.52315714,11.10607942,-99999.0,'11111222,11111222,99999999' 
TABS,ioos:station:wmo:42050:1,2015-04-01T10:00:00Z,28.8425,-94.2433,2.0,98.48892403,11.5161669,-99999.0,'11111222,11111222,99999999' 
TABS,ioos:station:wmo:42050:1,2015-04-01T10:30:00Z,28.8425,-94.2433,2.0,92.45973926,10.01923151,-99999.0,'11111222,11111222,99999999' 
TABS,ioos:station:wmo:42050:1,2015-04-01T11:00:00Z,28.8425,-94.2433,2.0,111.8848494,10.19468489,-99999.0,'11111222,11111222,99999999' 
TABS,ioos:station:wmo:42050:1,2015-04-01T11:30:00Z,28.8425,-94.2433,2.0,108.8096699,8.218935454,-99999.0,'11133222,11111222,99999999' 
TABS,ioos:station:wmo:42050:1,2015-04-01T12:00:00Z,28.8425,-94.2433,2.0,127.5342689,12.2448234,-99999.0,'11111222,11111222,99999999' 
TABS,ioos:station:wmo:42050:1,2015-04-01T12:30:00Z,28.8425,-94.2433,2.0,161.7453161,11.04589064,-99999.0,'11111222,11111222,99999999' 
TABS,ioos:station:wmo:42050:1,2015-04-01T13:00:00Z,28.8425,-94.2433,2.0,163.4277136,13.81380469,-99999.0,'11111222,11111222,99999999' 
TABS,ioos:station:wmo:42050:1,2015-04-01T13:30:00Z,28.8425,-94.2433,2.0,171.7267149,14.73332278,-99999.0,'11111222,11111222,99999999' 
TABS,ioos:station:wmo:42050:1,2015-04-01T14:00:00Z,28.8425,-94.2433,2.0,174.7941669,13.88727835,-99999.0,'11111222,11111222,99999999' 
TABS,ioos:station:wmo:42050:1,2015-04-01T14:30:00Z,28.8425,-94.2433,2.0,186.8081099,11.89387237,-99999.0,'11111222,11111222,99999999' 
TABS,ioos:station:wmo:42050:1,2015-04-01T15:00:00Z,28.8425,-94.2433,2.0,197.7724508,10.12312699,-99999.0,'11111222,11111222,99999999' 
TABS,ioos:station:wmo:42050:1,2015-04-01T15:30:00Z,28.8425,-94.2433,2.0,219.9507082,9.079124407,-99999.0,'11133222,11111222,99999999' 
TABS,ioos:station:wmo:42050:1,2015-04-01T16:00:00Z,28.8425,-94.2433,2.0,236.4772844,8.528552046,-99999.0,'11133222,11111222,99999999' 
TABS,ioos:station:wmo:42050:1,2015-04-01T16:30:00Z,28.8425,-94.2433,2.0,255.1172268,9.033011679,-99999.0,'11133222,11111222,99999999' 
TABS,ioos:station:wmo:42050:1,2015-04-01T17:00:00Z,28.8425,-94.2433,2.0,268.1913581,11.72583899,-99999.0,'11111222,11111222,99999999' 
TABS,ioos:station:wmo:42050:1,2015-04-01T17:30:00Z,28.8425,-94.2433,2.0,288.064016,11.22315909,-99999.0,'11111222,11111222,99999999' 
TABS,ioos:station:wmo:42050:1,2015-04-01T18:00:00Z,28.8425,-94.2433,2.0,281.5398909,11.74745079,-99999.0,'11111222,11111222,99999999' 
TABS,ioos:station:wmo:42050:1,2015-04-01T18:30:00Z,28.8425,-94.2433,2.0,280.5945753,13.81549854,-99999.0,'11111222,11111222,99999999' 
TABS,ioos:station:wmo:42050:1,2015-04-01T19:00:00Z,28.8425,-94.2433,2.0,280.7056679,13.56610851,-99999.0,'11111222,11111222,99999999' 
TABS,ioos:station:wmo:42050:1,2015-04-01T19:30:00Z,28.8425,-94.2433,2.0,279.7051994,12.04233366,-99999.0,'11111222,11111222,99999999' 
TABS,ioos:station:wmo:42050:1,2015-04-01T20:00:00Z,28.8425,-94.2433,2.0,268.1325011,10.43554024,-99999.0,'11111222,11111222,99999999' 
TABS,ioos:station:wmo:42050:1,2015-04-01T20:30:00Z,28.8425,-94.2433,2.0,264.9486947,11.92631125,-99999.0,'11111222,11111222,99999999' 
TABS,ioos:station:wmo:42050:1,2015-04-01T21:00:00Z,28.8425,-94.2433,2.0,267.4635747,14.46416607,-99999.0,'11111222,11111222,99999999' 
TABS,ioos:station:wmo:42050:1,2015-04-01T21:30:00Z,28.8425,-94.2433,2.0,274.6379709,14.71818603,-99999.0,'11111222,11111222,99999999' 
TABS,ioos:station:wmo:42050:1,2015-04-01T22:00:00Z,28.8425,-94.2433,2.0,276.0301632,15.89795584,-99999.0,'11111222,11111222,99999999' 
TABS,ioos:station:wmo:42050:1,2015-04-01T22:30:00Z,28.8425,-94.2433,2.0,271.8290439,18.48941589,-99999.0,'11111222,11111222,99999999' 
TABS,ioos:station:wmo:42050:1,2015-04-01T23:00:00Z,28.8425,-94.2433,2.0,272.4094967,18.55640051,-99999.0,'11111222,11111222,99999999' 
TABS,ioos:station:wmo:42050:1,2015-04-01T23:30:00Z,28.8425,-94.2433,2.0,280.8278487,20.49486277,-99999.0,'11111222,11111222,99999999' 
TABS,ioos:station:wmo:42050:1,2015-04-02T00:00:00Z,28.8425,-94.2433,2.0,280.2128435,19.96632415,-99999.0,'11111222,11111222,99999999' 
TABS,ioos:station:wmo:42050:1,2015-04-02T00:30:00Z,28.8425,-94.2433,2.0,294.6993993,18.40365453,-99999.0,'11111222,11111222,99999999' 
TABS,ioos:station:wmo:42050:1,2015-04-02T01:00:00Z,28.8425,-94.2433,2.0,304.1792246,18.53043443,-99999.0,'11111222,11111222,99999999' 
TABS,ioos:station:wmo:42050:1,2015-04-02T01:30:00Z,28.8425,-94.2433,2.0,300.8411052,17.5752155,-99999.0,'11111222,11111222,99999999' 
TABS,ioos:station:wmo:42050:1,2015-04-02T02:00:00Z,28.8425,-94.2433,2.0,312.9115006,17.65404486,-99999.0,'11111222,11111222,99999999' 
TABS,ioos:station:wmo:42050:1,2015-04-02T02:30:00Z,28.8425,-94.2433,2.0,323.4372001,16.43423561,-99999.0,'11111222,11111222,99999999' 
TABS,ioos:station:wmo:42050:1,2015-04-02T03:00:00Z,28.8425,-94.2433,2.0,322.6191751,15.46661566,-99999.0,'11111222,11111222,99999999' 
TABS,ioos:station:wmo:42050:1,2015-04-02T03:30:00Z,28.8425,-94.2433,2.0,334.0043647,13.50651695,-99999.0,'11111222,11111222,99999999' 
TABS,ioos:station:wmo:42050:1,2015-04-02T04:00:00Z,28.8425,-94.2433,2.0,342.8251611,12.22515849,-99999.0,'11111222,11111222,99999999' 
TABS,ioos:station:wmo:42050:1,2015-04-02T04:30:00Z,28.8425,-94.2433,2.0,355.9620211,13.77419689,-99999.0,'11111222,11111222,99999999' 
TABS,ioos:station:wmo:42050:1,2015-04-02T05:00:00Z,28.8425,-94.2433,2.0,16.49363432,11.20089282,-99999.0,'11111222,11111222,99999999' 
TABS,ioos:station:wmo:42050:1,2015-04-02T05:30:00Z,28.8425,-94.2433,2.0,21.46592169,9.509621444,-99999.0,'11133222,11111222,99999999' 
TABS,ioos:station:wmo:42050:1,2015-04-02T06:00:00Z,28.8425,-94.2433,2.0,18.1624673,13.95528932,-99999.0,'11111222,11111222,99999999' 
TABS,ioos:station:wmo:42050:1,2015-04-02T06:30:00Z,28.8425,-94.2433,2.0,23.24249816,12.03686421,-99999.0,'11111222,11111222,99999999' 
TABS,ioos:station:wmo:42050:1,2015-04-02T07:00:00Z,28.8425,-94.2433,2.0,22.30357511,14.6240692,-99999.0,'11111222,11111222,99999999' 
TABS,ioos:station:wmo:42050:1,2015-04-02T07:30:00Z,28.8425,-94.2433,2.0,36.89138492,16.09200112,-99999.0,'11111222,11111222,99999999' 
TABS,ioos:station:wmo:42050:1,2015-04-02T08:00:00Z,28.8425,-94.2433,2.0,46.90671293,10.62662693,-99999.0,'11111222,11111222,99999999' 
TABS,ioos:station:wmo:42050:1,2015-04-02T08:30:00Z,28.8425,-94.2433,2.0,61.92415276,9.837647076,-99999.0,'11133222,11111222,99999999' 
TABS,ioos:station:wmo:42050:1,2015-04-02T09:00:00Z,28.8425,-94.2433,2.0,75.67319686,8.607700041,-99999.0,'11133222,11111222,99999999' 
TABS,ioos:station:wmo:42050:1,2015-04-02T09:30:00Z,28.8425,-94.2433,2.0,87.68448571,6.435254463,-99999.0,'11133222,11111222,99999999' 
TABS,ioos:station:wmo:42050:1,2015-04-02T10:00:00Z,28.8425,-94.2433,2.0,121.5606516,6.419540482,-99999.0,'11133222,11111222,99999999' 
TABS,ioos:station:wmo:42050:1,2015-04-02T10:30:00Z,28.8425,-94.2433,2.0,110.9848488,8.600424408,-99999.0,'11133222,11111222,99999999' 
TABS,ioos:station:wmo:42050:1,2015-04-02T11:00:00Z,28.8425,-94.2433,2.0,96.72310475,10.07931049,-99999.0,'11111222,11111222,99999999' 
TABS,ioos:station:wmo:42050:1,2015-04-02T11:30:00Z,28.8425,-94.2433,2.0,140.1190513,9.747456078,-99999.0,'11133222,11111222,99999999' 
TABS,ioos:station:wmo:42050:1,2015-04-02T12:00:00Z,28.8425,-94.2433,2.0,162.8202968,8.227059013,-99999.0,'11133222,11111222,99999999' 
TABS,ioos:station:wmo:42050:1,2015-04-02T12:30:00Z,28.8425,-94.2433,2.0,165.1251659,8.453271556,-99999.0,'11133222,11111222,99999999' 
TABS,ioos:station:wmo:42050:1,2015-04-02T13:00:00Z,28.8425,-94.2433,2.0,187.5607534,11.24779534,-99999.0,'11111222,11111222,99999999' 
TABS,ioos:station:wmo:42050:1,2015-04-02T13:30:00Z,28.8425,-94.2433,2.0,187.4434885,8.02765221,-99999.0,'11133222,11111222,99999999' 
TABS,ioos:station:wmo:42050:1,2015-04-02T14:00:00Z,28.8425,-94.2433,2.0,204.9468822,7.444602071,-99999.0,'11133222,11111222,99999999' 
TABS,ioos:station:wmo:42050:1,2015-04-02T14:30:00Z,28.8425,-94.2433,2.0,226.9103845,8.695176824,-99999.0,'11133222,11111222,99999999' 
TABS,ioos:station:wmo:42050:1,2015-04-02T15:00:00Z,28.8425,-94.2433,2.0,249.7459566,6.875092727,-99999.0,'11133222,11111222,99999999' 
TABS,ioos:station:wmo:42050:1,2015-04-02T15:30:00Z,28.8425,-94.2433,2.0,262.7537239,7.056351749,-99999.0,'11133222,11111222,99999999' 
TABS,ioos:station:wmo:42050:1,2015-04-02T16:00:00Z,28.8425,-94.2433,2.0,285.9457795,5.678485714,-99999.0,'11133222,11111222,99999999' 
TABS,ioos:station:wmo:42050:1,2015-04-02T16:30:00Z,28.8425,-94.2433,2.0,297.9239453,6.790611165,-99999.0,'11133222,11111222,99999999' 
TABS,ioos:station:wmo:42050:1,2015-04-02T17:00:00Z,28.8425,-94.2433,2.0,308.1439757,7.107756327,-99999.0,'11133222,11111222,99999999' 
TABS,ioos:station:wmo:42050:1,2015-04-02T17:30:00Z,28.8425,-94.2433,2.0,315.2271381,8.930828629,-99999.0,'11133222,11111222,99999999' 
TABS,ioos:station:wmo:42050:1,2015-04-02T18:00:00Z,28.8425,-94.2433,2.0,324.6864607,7.438743173,-99999.0,'11133222,11111222,99999999' 
TABS,ioos:station:wmo:42050:1,2015-04-02T18:30:00Z,28.8425,-94.2433,2.0,345.6246416,4.913857955,-99999.0,'11133222,11111222,99999999' 
TABS,ioos:station:wmo:42050:1,2015-04-02T19:00:00Z,28.8425,-94.2433,2.0,353.5973126,4.035170381,-99999.0,'11133222,11111222,99999999' 
TABS,ioos:station:wmo:42050:1,2015-04-02T19:30:00Z,28.8425,-94.2433,2.0,355.1436179,6.142051774,-99999.0,'11133222,11111222,99999999' 
TABS,ioos:station:wmo:42050:1,2015-04-02T20:00:00Z,28.8425,-94.2433,2.0,29.58790474,2.713890197,-99999.0,'11133222,11111222,99999999' 
TABS,ioos:station:wmo:42050:1,2015-04-02T20:30:00Z,28.8425,-94.2433,2.0,8.305867242,2.769043156,-99999.0,'11133222,11111222,99999999' 
TABS,ioos:station:wmo:42050:1,2015-04-02T21:00:00Z,28.8425,-94.2433,2.0,166.9079271,0.441474801,-99999.0,'11133222,11111222,99999999' 
TABS,ioos:station:wmo:42050:1,2015-04-02T21:30:00Z,28.8425,-94.2433,2.0,168.2992374,1.725862103,-99999.0,'11133222,11111222,99999999' 
TABS,ioos:station:wmo:42050:1,2015-04-02T22:00:00Z,28.8425,-94.2433,2.0,161.7164593,2.390690277,-99999.0,'11133222,11111222,99999999' 
TABS,ioos:station:wmo:42050:1,2015-04-02T22:30:00Z,28.8425,-94.2433,2.0,157.7188627,3.771604433,-99999.0,'11133222,11111222,99999999' 
TABS,ioos:station:wmo:42050:1,2015-04-02T23:00:00Z,28.8425,-94.2433,2.0,153.4755223,6.292296878,-99999.0,'11133222,11111222,99999999' 
TABS,ioos:station:wmo:42050:1,2015-04-02T23:30:00Z,28.8425,-94.2433,2.0,186.8866853,5.670917033,-99999.0,'11133222,11111222,99999999' 
TABS,ioos:station:wmo:42050:1,2015-04-03T00:00:00Z,28.8425,-94.2433,2.0,201.5995558,7.388863241,-99999.0,'11133222,11111222,99999999' 
TABS,ioos:station:wmo:42050:1,2015-04-03T00:30:00Z,28.8425,-94.2433,2.0,211.9962934,13.79587257,-99999.0,'11111222,11111222,99999999' 
TABS,ioos:station:wmo:42050:1,2015-04-03T01:00:00Z,28.8425,-94.2433,2.0,222.4861491,14.67244015,-99999.0,'11111222,11111222,99999999' 
TABS,ioos:station:wmo:42050:1,2015-04-03T01:30:00Z,28.8425,-94.2433,2.0,227.5826989,15.06253631,-99999.0,'11111222,11111222,99999999' 
TABS,ioos:station:wmo:42050:1,2015-04-03T02:00:00Z,28.8425,-94.2433,2.0,233.6543036,12.45252183,-99999.0,'11111222,11111222,99999999' 
TABS,ioos:station:wmo:42050:1,2015-04-03T02:30:00Z,28.8425,-94.2433,2.0,247.7768152,12.87646302,-99999.0,'11111222,11111222,99999999' 
TABS,ioos:station:wmo:42050:1,2015-04-03T03:00:00Z,28.8425,-94.2433,2.0,247.2413568,14.01081011,-99999.0,'11111222,11111222,99999999' 
TABS,ioos:station:wmo:42050:1,2015-04-03T03:30:00Z,28.8425,-94.2433,2.0,257.5233567,13.00715572,-99999.0,'11111222,11111222,99999999' 
TABS,ioos:station:wmo:42050:1,2015-04-03T04:00:00Z,28.8425,-94.2433,2.0,280.198227,11.01399564,-99999.0,'11111222,11111222,99999999' 
TABS,ioos:station:wmo:42050:1,2015-04-03T04:30:00Z,28.8425,-94.2433,2.0,303.5154235,12.71378779,-99999.0,'11111222,11111222,99999999' 
TABS,ioos:station:wmo:42050:1,2015-04-03T05:00:00Z,28.8425,-94.2433,2.0,306.3233506,14.24864906,-99999.0,'11111222,11111222,99999999' 
TABS,ioos:station:wmo:42050:1,2015-04-03T05:30:00Z,28.8425,-94.2433,2.0,298.143123,10.07059581,-99999.0,'11111222,11111222,99999999' 
TABS,ioos:station:wmo:42050:1,2015-04-03T06:00:00Z,28.8425,-94.2433,2.0,327.9423795,9.250605386,-99999.0,'11133222,11111222,99999999' 
TABS,ioos:station:wmo:42050:1,2015-04-03T06:30:00Z,28.8425,-94.2433,2.0,319.4869488,7.773712112,-99999.0,'11133222,11111222,99999999' 
TABS,ioos:station:wmo:42050:1,2015-04-03T07:00:00Z,28.8425,-94.2433,2.0,316.6971284,8.835638064,-99999.0,'11133222,11111222,99999999' 
TABS,ioos:station:wmo:42050:1,2015-04-03T07:30:00Z,28.8425,-94.2433,2.0,345.2150798,6.308890552,-99999.0,'11133222,11111222,99999999' 
TABS,ioos:station:wmo:42050:1,2015-04-03T08:00:00Z,28.8425,-94.2433,2.0,329.4725121,6.536000306,-99999.0,'11133222,11111222,99999999' 
TABS,ioos:station:wmo:42050:1,2015-04-03T08:30:00Z,28.8425,-94.2433,2.0,351.3979209,5.147912198,-99999.0,'11133222,11111222,99999999' 
TABS,ioos:station:wmo:42050:1,2015-04-03T09:00:00Z,28.8425,-94.2433,2.0,323.4092078,4.932058394,-99999.0,'11133222,11111222,99999999' 
TABS,ioos:station:wmo:42050:1,2015-04-03T09:30:00Z,28.8425,-94.2433,2.0,0.509491673,4.500177774,-99999.0,'11133222,11111222,99999999' 
TABS,ioos:station:wmo:42050:1,2015-04-03T10:00:00Z,28.8425,-94.2433,2.0,7.804290801,1.988416455,-99999.0,'11133222,11111222,99999999' 
TABS,ioos:station:wmo:42050:1,2015-04-03T10:30:00Z,28.8425,-94.2433,2.0,92.70293772,2.332595121,-99999.0,'11133222,11111222,99999999' 
TABS,ioos:station:wmo:42050:1,2015-04-03T11:00:00Z,28.8425,-94.2433,2.0,117.8754452,1.368831619,-99999.0,'11133222,11111222,99999999' 
TABS,ioos:station:wmo:42050:1,2015-04-03T11:30:00Z,28.8425,-94.2433,2.0,111.7407282,3.509643857,-99999.0,'11133222,11111222,99999999' 
TABS,ioos:station:wmo:42050:1,2015-04-03T12:00:00Z,28.8425,-94.2433,2.0,106.2201558,2.291200559,-99999.0,'11133222,11111222,99999999' 
TABS,ioos:station:wmo:42050:1,2015-04-03T12:30:00Z,28.8425,-94.2433,2.0,128.3853319,5.217825217,-99999.0,'11133222,11111222,99999999' 
TABS,ioos:station:wmo:42050:1,2015-04-03T13:00:00Z,28.8425,-94.2433,2.0,102.3390584,5.56863538,-99999.0,'11133222,11111222,99999999' 
TABS,ioos:station:wmo:42050:1,2015-04-03T13:30:00Z,28.8425,-94.2433,2.0,108.3146211,4.518904735,-99999.0,'11133222,11111222,99999999' 
TABS,ioos:station:wmo:42050:1,2015-04-03T14:00:00Z,28.8425,-94.2433,2.0,79.1243371,4.399011253,-99999.0,'11133222,11111222,99999999' 
TABS,ioos:station:wmo:42050:1,2015-04-03T14:30:00Z,28.8425,-94.2433,2.0,92.61483463,6.356618598,-99999.0,'11133222,11111222,99999999' 
TABS,ioos:station:wmo:42050:1,2015-04-03T15:00:00Z,28.8425,-94.2433,2.0,77.19576388,6.993918787,-99999.0,'11133222,11111222,99999999' 
TABS,ioos:station:wmo:42050:1,2015-04-03T15:30:00Z,28.8425,-94.2433,2.0,78.24936693,6.628921481,-99999.0,'11133222,11111222,99999999' 
TABS,ioos:station:wmo:42050:1,2015-04-03T16:00:00Z,28.8425,-94.2433,2.0,60.13969417,6.768589218,-99999.0,'11133222,11111222,99999999' 
TABS,ioos:station:wmo:42050:1,2015-04-03T16:30:00Z,28.8425,-94.2433,2.0,57.54688416,4.88249936,-99999.0,'11133222,11111222,99999999' 
TABS,ioos:station:wmo:42050:1,2015-04-03T17:00:00Z,28.8425,-94.2433,2.0,84.60528008,5.956383131,-99999.0,'11133222,11111222,99999999' 
TABS,ioos:station:wmo:42050:1,2015-04-03T17:30:00Z,28.8425,-94.2433,2.0,85.81509366,7.810825821,-99999.0,'11133222,11111222,99999999' 
TABS,ioos:station:wmo:42050:1,2015-04-03T18:00:00Z,28.8425,-94.2433,2.0,101.6543019,7.177980217,-99999.0,'11133222,11111222,99999999' 
TABS,ioos:station:wmo:42050:1,2015-04-03T18:30:00Z,28.8425,-94.2433,2.0,105.4519745,3.828380859,-99999.0,'11133222,11111222,99999999' 
TABS,ioos:station:wmo:42050:1,2015-04-03T19:00:00Z,28.8425,-94.2433,2.0,98.82972402,1.042353107,-99999.0,'11133222,11111222,99999999' 
TABS,ioos:station:wmo:42050:1,2015-04-03T19:30:00Z,28.8425,-94.2433,2.0,183.4091176,2.354166519,-99999.0,'11133222,11111222,99999999' 
TABS,ioos:station:wmo:42050:1,2015-04-03T20:00:00Z,28.8425,-94.2433,2.0,196.6901895,6.232575712,-99999.0,'11133222,11111222,99999999' 
TABS,ioos:station:wmo:42050:1,2015-04-03T20:30:00Z,28.8425,-94.2433,2.0,191.2636503,7.321017689,-99999.0,'11133222,11111222,99999999' 
TABS,ioos:station:wmo:42050:1,2015-04-03T21:00:00Z,28.8425,-94.2433,2.0,207.0736075,12.58955917,-99999.0,'11111222,11111222,99999999' 
TABS,ioos:station:wmo:42050:1,2015-04-03T21:30:00Z,28.8425,-94.2433,2.0,215.8300893,17.74892109,-99999.0,'11111222,11111222,99999999' 
TABS,ioos:station:wmo:42050:1,2015-04-03T22:00:00Z,28.8425,-94.2433,2.0,214.2442853,20.34735609,-99999.0,'11111222,11111222,99999999' 
TABS,ioos:station:wmo:42050:1,2015-04-03T22:30:00Z,28.8425,-94.2433,2.0,204.0502937,16.51360954,-99999.0,'11111222,11111222,99999999' 
TABS,ioos:station:wmo:42050:1,2015-04-03T23:00:00Z,28.8425,-94.2433,2.0,202.75723,15.69158373,-99999.0,'11111222,11111222,99999999' 
TABS,ioos:station:wmo:42050:1,2015-04-03T23:30:00Z,28.8425,-94.2433,2.0,220.7458578,15.44332866,-99999.0,'11111222,11111222,99999999' 
TABS,ioos:station:wmo:42050:1,2015-04-04T00:00:00Z,28.8425,-94.2433,2.0,219.1126888,20.33758344,-99999.0,'11111222,11111222,99999999' 
TABS,ioos:station:wmo:42050:1,2015-04-04T00:30:00Z,28.8425,-94.2433,2.0,225.0550424,21.9556758,-99999.0,'11111222,11111222,99999999' 
TABS,ioos:station:wmo:42050:1,2015-04-04T01:00:00Z,28.8425,-94.2433,2.0,231.1291253,21.6552003,-99999.0,'11111222,11111222,99999999' 
TABS,ioos:station:wmo:42050:1,2015-04-04T01:30:00Z,28.8425,-94.2433,2.0,239.0647593,17.02123674,-99999.0,'11111222,11111222,99999999' 
TABS,ioos:station:wmo:42050:1,2015-04-04T02:00:00Z,28.8425,-94.2433,2.0,239.8768275,16.35929705,-99999.0,'11111222,11111222,99999999' 
TABS,ioos:station:wmo:42050:1,2015-04-04T02:30:00Z,28.8425,-94.2433,2.0,246.6519652,16.65365125,-99999.0,'11111222,11111222,99999999' 
TABS,ioos:station:wmo:42050:1,2015-04-04T03:00:00Z,28.8425,-94.2433,2.0,254.2162192,13.60287102,-99999.0,'11111222,11111222,99999999' 
TABS,ioos:station:wmo:42050:1,2015-04-04T03:30:00Z,28.8425,-94.2433,2.0,264.8184513,15.61379518,-99999.0,'11111222,11111222,99999999' 
TABS,ioos:station:wmo:42050:1,2015-04-04T04:00:00Z,28.8425,-94.2433,2.0,272.0946872,14.22950456,-99999.0,'11111222,11111222,99999999' 
TABS,ioos:station:wmo:42050:1,2015-04-04T04:30:00Z,28.8425,-94.2433,2.0,281.8610588,12.6500751,-99999.0,'11111222,11111222,99999999' 
TABS,ioos:station:wmo:42050:1,2015-04-04T05:00:00Z,28.8425,-94.2433,2.0,289.3796748,17.26838151,-99999.0,'11111222,11111222,99999999' 
TABS,ioos:station:wmo:42050:1,2015-04-04T05:30:00Z,28.8425,-94.2433,2.0,294.2293829,20.51732195,-99999.0,'11111222,11111222,99999999' 
TABS,ioos:station:wmo:42050:1,2015-04-04T06:00:00Z,28.8425,-94.2433,2.0,297.1834228,21.14548888,-99999.0,'11111222,11111222,99999999' 
TABS,ioos:station:wmo:42050:1,2015-04-04T06:30:00Z,28.8425,-94.2433,2.0,310.5101049,18.33498568,-99999.0,'11111222,11111222,99999999' 
TABS,ioos:station:wmo:42050:1,2015-04-04T07:00:00Z,28.8425,-94.2433,2.0,312.0948616,17.8561866,-99999.0,'11111222,11111222,99999999' 
TABS,ioos:station:wmo:42050:1,2015-04-04T07:30:00Z,28.8425,-94.2433,2.0,317.2770765,16.37537786,-99999.0,'11111222,11111222,99999999' 
TABS,ioos:station:wmo:42050:1,2015-04-04T08:00:00Z,28.8425,-94.2433,2.0,320.0580642,13.95605962,-99999.0,'11111222,11111222,99999999' 
TABS,ioos:station:wmo:42050:1,2015-04-04T08:30:00Z,28.8425,-94.2433,2.0,314.8211874,15.8321982,-99999.0,'11111222,11111222,99999999' 
TABS,ioos:station:wmo:42050:1,2015-04-04T09:00:00Z,28.8425,-94.2433,2.0,313.4957104,15.08071616,-99999.0,'11111222,11111222,99999999' 
TABS,ioos:station:wmo:42050:1,2015-04-04T09:30:00Z,28.8425,-94.2433,2.0,306.3592144,11.43645487,-99999.0,'11111222,11111222,99999999' 
TABS,ioos:station:wmo:42050:1,2015-04-04T10:00:00Z,28.8425,-94.2433,2.0,294.382552,9.98010521,-99999.0,'11133222,11111222,99999999' 
TABS,ioos:station:wmo:42050:1,2015-04-04T10:30:00Z,28.8425,-94.2433,2.0,248.9543219,10.55398503,-99999.0,'11111222,11111222,99999999' 
TABS,ioos:station:wmo:42050:1,2015-04-04T11:00:00Z,28.8425,-94.2433,2.0,233.5210414,14.93634828,-99999.0,'11111222,11111222,99999999' 
TABS,ioos:station:wmo:42050:1,2015-04-04T11:30:00Z,28.8425,-94.2433,2.0,228.4205366,18.36800751,-99999.0,'11111222,11111222,99999999' 
TABS,ioos:station:wmo:42050:1,2015-04-04T12:00:00Z,28.8425,-94.2433,2.0,231.8704723,29.84920937,-99999.0,'11111222,11111222,99999999' 
TABS,ioos:station:wmo:42050:1,2015-04-04T12:30:00Z,28.8425,-94.2433,2.0,237.2755732,27.80275166,-99999.0,'11111222,11111222,99999999' 
TABS,ioos:station:wmo:42050:1,2015-04-04T13:00:00Z,28.8425,-94.2433,2.0,237.7513055,35.49540815,-99999.0,'11111222,11111222,99999999' 
TABS,ioos:station:wmo:42050:1,2015-04-04T13:30:00Z,28.8425,-94.2433,2.0,240.9639595,41.18640795,-99999.0,'11111222,11111222,99999999' 
TABS,ioos:station:wmo:42050:1,2015-04-04T14:00:00Z,28.8425,-94.2433,2.0,244.4551953,43.4358032,-99999.0,'11111222,11111222,99999999' 
TABS,ioos:station:wmo:42050:1,2015-04-04T14:30:00Z,28.8425,-94.2433,2.0,248.3289615,48.01351164,-99999.0,'11111222,11111222,99999999' 
TABS,ioos:station:wmo:42050:1,2015-04-04T15:00:00Z,28.8425,-94.2433,2.0,253.758546,50.30760281,-99999.0,'11111222,11111222,99999999' 
TABS,ioos:station:wmo:42050:1,2015-04-04T15:30:00Z,28.8425,-94.2433,2.0,255.4382093,51.07044644,-99999.0,'11111222,11111222,99999999' 
TABS,ioos:station:wmo:42050:1,2015-04-04T16:00:00Z,28.8425,-94.2433,2.0,261.3951939,48.85992427,-99999.0,'11111222,11111222,99999999' 